Olivia, MN

1:20 AM CDT on August 22, 2017 (GMT -0500)
Olivia Regional

Weather History for KOVL - January, 2013

Change the Weather History Date:

Saturday, January 19, 2013

  Actual Average (KRWF) Record (KRWF)
Temperature  
Mean Temperature 19 °F -  
Max Temperature 37 °F 22 °F 51 °F (1947)
Min Temperature 1 °F 2 °F -34 °F (1970)
Degree Days  
Heating Degree Days 46    
Moisture  
Dew Point 18 °F    
Average Humidity 83    
Maximum Humidity 93    
Minimum Humidity 72    
Precipitation  
Precipitation 0.00 in - - ()
Sea Level Pressure  
Sea Level Pressure 29.91 in    
Wind  
Wind Speed 13 mph (WNW)    
Max Wind Speed 36 mph    
Max Gust Speed 52 mph    
Visibility 8 miles    
Events Snow    
Averages and records for this station are not official NWS values.
T = Trace of Precipitation, MM = Missing Value Source: NWS Daily Summary

Daily Weather History Graph

Daily Weather History Graph

Search for Another Location

Airport or City:

Trip Planner

Search our weather history database for the weather conditions in past years. The results will help you decide how hot, cold, wet, or windy it might be!

Date:

Astronomy

Jan. 19, 2013 Rise Set
Actual Time 7:51 AM CST 5:11 PM CST
Civil Twilight 7:19 AM CST 5:43 PM CST
Nautical Twilight 6:43 AM CST 6:19 PM CST
Astronomical Twilight 6:08 AM CST 6:54 PM CST
Moon 11:40 AM CST (1/19) 1:22 AM CST (1/19)
Length of Visible Light 10h 24m
Length of Day
9h 19m
First Quarter, 57% of the Moon is Illuminated
Jan 19
First Quarter
Jan 26
Full
Feb 3
Last Quarter
Feb 10
New
Feb 17
First Quarter

Hourly Weather History & Observations

Time (CST) Temp. Windchill Dew Point Humidity Pressure Visibility Wind Dir Wind Speed Gust Speed Precip Events Conditions
12:11 AM 30.2 °F 25.4 °F 28.4 °F 93% 29.74 in 10.0 mi South 4.6 mph - N/A   Clear
12:31 AM 30.2 °F - 28.4 °F 93% 29.73 in 10.0 mi Calm Calm - N/A   Clear
12:51 AM 30.2 °F 24.3 °F 28.4 °F 93% 29.73 in 10.0 mi South 5.8 mph - N/A   Clear
1:11 AM 30.2 °F 23.4 °F 28.4 °F 93% 29.73 in 10.0 mi South 6.9 mph - N/A   Clear
1:31 AM 30.2 °F 24.3 °F 26.6 °F 86% 29.73 in 10.0 mi South 5.8 mph - N/A   Clear
1:50 AM 30.2 °F 26.7 °F 26.6 °F 86% 29.73 in 10.0 mi South 3.5 mph - N/A   Clear
2:11 AM 30.2 °F 26.7 °F 26.6 °F 86% 29.73 in 10.0 mi South 3.5 mph - N/A   Clear
2:30 AM 30.2 °F 25.4 °F 28.4 °F 93% 29.72 in 10.0 mi South 4.6 mph - N/A   Clear
2:51 AM 30.2 °F 24.3 °F 28.4 °F 93% 29.71 in 10.0 mi South 5.8 mph - N/A   Clear
3:11 AM 30.2 °F 24.3 °F 28.4 °F 93% 29.70 in 10.0 mi South 5.8 mph - N/A   Clear
3:31 AM 30.2 °F 24.3 °F 28.4 °F 93% 29.69 in 10.0 mi South 5.8 mph - N/A   Clear
3:51 AM 30.2 °F 24.3 °F 28.4 °F 93% 29.69 in 10.0 mi South 5.8 mph - N/A   Clear
4:11 AM 30.2 °F 24.3 °F 28.4 °F 93% 29.71 in 10.0 mi SW 5.8 mph - N/A   Clear
4:31 AM 30.2 °F 26.7 °F 28.4 °F 93% 29.70 in 10.0 mi West 3.5 mph - N/A   Clear
4:51 AM 28.4 °F 21.2 °F 26.6 °F 93% 29.69 in 10.0 mi SSW 6.9 mph - N/A   Clear
5:11 AM 30.2 °F 23.4 °F 28.4 °F 93% 29.70 in 10.0 mi WSW 6.9 mph - N/A   Clear
5:30 AM 30.2 °F 22.6 °F 28.4 °F 93% 29.70 in 10.0 mi West 8.1 mph - N/A   Clear
5:51 AM 28.4 °F 20.4 °F 24.8 °F 86% 29.70 in 10.0 mi West 8.1 mph - N/A   Clear
6:11 AM 30.2 °F 23.4 °F 26.6 °F 86% 29.69 in 10.0 mi West 6.9 mph - N/A   Scattered Clouds
6:31 AM 30.2 °F 22.6 °F 26.6 °F 86% 29.69 in 10.0 mi West 8.1 mph - N/A   Scattered Clouds
6:51 AM 30.2 °F 20.8 °F 26.6 °F 86% 29.69 in 10.0 mi West 11.5 mph - N/A   Clear
7:11 AM 32.0 °F 22.1 °F 28.4 °F 87% 29.71 in 10.0 mi West 13.8 mph - N/A   Clear
7:31 AM 32.0 °F 22.5 °F 28.4 °F 87% 29.72 in 10.0 mi West 12.7 mph - N/A   Scattered Clouds
7:51 AM 32.0 °F 23.0 °F 28.4 °F 87% 29.73 in 10.0 mi West 11.5 mph - N/A   Scattered Clouds
8:11 AM 32.0 °F 22.1 °F 28.4 °F 87% 29.74 in 10.0 mi West 13.8 mph - N/A   Clear
8:31 AM 33.8 °F 24.8 °F 30.2 °F 87% 29.74 in 10.0 mi West 12.7 mph - N/A   Scattered Clouds
8:51 AM 33.8 °F 23.5 °F 30.2 °F 87% 29.75 in 10.0 mi WNW 16.1 mph - N/A   Scattered Clouds
9:11 AM 33.8 °F 23.9 °F 28.4 °F 81% 29.76 in 10.0 mi WNW 15.0 mph - N/A   Clear
9:31 AM 35.6 °F 25.9 °F 30.2 °F 81% 29.77 in 10.0 mi WNW 16.1 mph 20.7 mph N/A   Mostly Cloudy
9:50 AM 35.6 °F 25.2 °F 32.0 °F 87% 29.79 in 10.0 mi West 18.4 mph - N/A   Mostly Cloudy
10:11 AM 35.6 °F 25.2 °F 30.2 °F 81% 29.79 in 10.0 mi WNW 18.4 mph 23.0 mph N/A   Scattered Clouds
10:31 AM 35.6 °F 25.2 °F 30.2 °F 81% 29.80 in 10.0 mi WNW 18.4 mph - N/A   Clear
10:50 AM 35.6 °F 25.9 °F 30.2 °F 81% 29.80 in 10.0 mi WNW 16.1 mph - N/A   Clear
11:11 AM 35.6 °F 25.5 °F 30.2 °F 81% 29.80 in 10.0 mi WNW 17.3 mph 23.0 mph N/A   Clear
11:31 AM 35.6 °F 25.5 °F 30.2 °F 81% 29.81 in 10.0 mi WNW 17.3 mph 23.0 mph N/A   Clear
11:51 AM 35.6 °F 25.5 °F 32.0 °F 87% 29.80 in 10.0 mi WNW 17.3 mph 21.9 mph N/A   Scattered Clouds
12:11 PM 37.4 °F 27.5 °F 32.0 °F 81% 29.81 in 10.0 mi WNW 18.4 mph 25.3 mph N/A   Scattered Clouds
12:31 PM 37.4 °F 26.9 °F 30.2 °F 75% 29.80 in 10.0 mi WNW 20.7 mph 25.3 mph N/A   Mostly Cloudy
12:51 PM 35.6 °F 23.7 °F 30.2 °F 81% 29.81 in 10.0 mi WNW 24.2 mph 29.9 mph N/A   Scattered Clouds
1:31 PM 28.4 °F 11.6 °F 21.2 °F 74% 29.86 in 10.0 mi NW 35.7 mph 51.8 mph N/A   Overcast
1:51 PM 26.6 °F 10.0 °F 21.2 °F 80% 29.88 in 10.0 mi NW 31.1 mph 41.4 mph N/A   Overcast
2:11 PM 24.8 °F 7.6 °F 19.4 °F 80% 29.90 in 10.0 mi NW 31.1 mph 44.9 mph N/A   Scattered Clouds
2:31 PM 23.0 °F 4.6 °F 15.8 °F 74% 29.92 in 10.0 mi NW 33.4 mph 39.1 mph N/A   Scattered Clouds
2:51 PM 21.2 °F 2.2 °F 14.0 °F 74% 29.94 in 10.0 mi NW 33.4 mph 41.4 mph N/A Snow Light Snow
3:11 PM 21.2 °F 3.3 °F 14.0 °F 74% 29.96 in 5.0 mi NW 28.8 mph 40.3 mph N/A Snow Light Snow
3:31 PM 21.2 °F 4.2 °F 14.0 °F 74% 29.99 in 5.0 mi NW 25.3 mph 36.8 mph N/A Snow Light Snow
3:51 PM 19.4 °F 2.1 °F 14.0 °F 80% 30.00 in 0.5 mi WNW 24.2 mph 39.1 mph N/A Snow Light Snow
4:11 PM 17.6 °F -2.5 °F 12.2 °F 79% 30.02 in 0.2 mi NW 32.2 mph 38.0 mph N/A Snow Light Snow
4:29 PM 15.8 °F -4.1 °F 10.4 °F 79% 30.04 in 7.0 mi NW 28.8 mph 39.1 mph N/A   Scattered Clouds
4:50 PM 15.8 °F -5.2 °F 10.4 °F 79% 30.06 in 0.5 mi NW 33.4 mph 42.6 mph N/A Snow Light Snow
5:11 PM 12.2 °F -9.6 °F 8.6 °F 85% 30.09 in 1.8 mi NW 31.1 mph 41.4 mph N/A   Haze
5:31 PM 12.2 °F -9.3 °F 8.6 °F 85% 30.11 in 0.2 mi NW 29.9 mph 42.6 mph N/A Snow Light Snow
5:51 PM 10.4 °F -12.0 °F 6.8 °F 85% 30.13 in 0.8 mi NW 31.1 mph 41.4 mph N/A Snow Light Snow
6:11 PM 10.4 °F -11.7 °F 5.0 °F 79% 30.14 in 10.0 mi NW 29.9 mph 40.3 mph N/A   Scattered Clouds
6:31 PM 10.4 °F -11.7 °F 5.0 °F 79% 30.16 in 2.5 mi NW 29.9 mph 40.3 mph N/A   Haze
6:51 PM 8.6 °F -13.4 °F 1.4 °F 73% 30.17 in 10.0 mi NW 27.6 mph 39.1 mph N/A   Scattered Clouds
7:11 PM 8.6 °F -13.4 °F 1.4 °F 73% 30.18 in 10.0 mi NW 27.6 mph 31.1 mph N/A   Scattered Clouds
7:31 PM 8.6 °F -11.9 °F 3.2 °F 79% 30.19 in 0.5 mi NW 23.0 mph 31.1 mph N/A Snow Snow
7:51 PM 6.8 °F -15.5 °F 1.4 °F 79% 30.20 in 2.5 mi NW 26.5 mph 36.8 mph N/A   Haze
8:11 PM 5.0 °F -20.1 °F -0.4 °F 78% 30.21 in 3.0 mi NW 33.4 mph 41.4 mph N/A   Haze
8:31 PM 5.0 °F -17.9 °F -2.2 °F 72% 30.23 in 10.0 mi NW 26.5 mph 38.0 mph N/A   Scattered Clouds
8:51 PM 5.0 °F -17.9 °F -0.4 °F 78% 30.24 in 1.5 mi NW 26.5 mph 33.4 mph N/A   Haze
9:11 PM 3.2 °F -19.5 °F -2.2 °F 78% 30.25 in 10.0 mi NW 24.2 mph 28.8 mph N/A   Scattered Clouds
9:31 PM 3.2 °F -19.5 °F -2.2 °F 78% 30.24 in 10.0 mi NW 24.2 mph 34.5 mph N/A   Scattered Clouds
9:50 PM 3.2 °F -18.6 °F -4.0 °F 72% 30.25 in 10.0 mi NW 21.9 mph 31.1 mph N/A   Clear
10:11 PM 3.2 °F -18.6 °F -4.0 °F 72% 30.25 in 10.0 mi NW 21.9 mph 28.8 mph N/A   Clear
10:31 PM 3.2 °F -17.6 °F -4.0 °F 72% 30.25 in 10.0 mi NW 19.6 mph 26.5 mph N/A   Clear
10:50 PM 3.2 °F -18.6 °F -4.0 °F 72% 30.27 in 7.0 mi NW 21.9 mph 31.1 mph N/A   Scattered Clouds
11:11 PM 3.2 °F -18.1 °F -4.0 °F 72% 30.28 in 5.0 mi NW 20.7 mph 31.1 mph N/A   Haze
11:31 PM 1.4 °F -21.0 °F -4.0 °F 78% 30.29 in 10.0 mi NW 21.9 mph 29.9 mph N/A   Scattered Clouds
11:50 PM 1.4 °F -19.9 °F -5.8 °F 72% 30.29 in 10.0 mi NW 19.6 mph 27.6 mph N/A   Scattered Clouds